Change the Weather History Date:

Saturday, September 15, 2012

  Actual Average Record
Temperature  
Mean Temperature 60 °F -  
Max Temperature 61 °F 67 °F - ()
Min Temperature 57 °F 46 °F - ()
Degree Days  
Heating Degree Days 6    
Growing Degree Days 10 (Base 50)    
Moisture  
Dew Point 53 °F    
Average Humidity 77    
Maximum Humidity 88    
Minimum Humidity 61    
Precipitation  
Precipitation 0.02 in 0.05 in - ()
Sea Level Pressure  
Sea Level Pressure 29.89 in    
Wind  
Wind Speed 4 mph ()    
Max Wind Speed 14 mph    
Max Gust Speed -    
Visibility 6.6 miles    
Events Rain    
T = Trace of Precipitation, MM = Missing Value Source: Averaged Metar Reports

Daily Weather History Graph

Daily Weather History Graph

Search for Another Location

Airport or City:

Trip Planner

Search our weather history database for the weather conditions in past years. The results will help you decide how hot, cold, wet, or windy it might be!

Date:

Astronomy

Sep. 15, 2012 Rise Set
Actual Time 6:11 AM CEST 6:45 PM CEST
Civil Twilight 5:40 AM CEST 7:16 PM CEST
Nautical Twilight 5:03 AM CEST 7:52 PM CEST
Astronomical Twilight 4:25 AM CEST 8:30 PM CEST
Moon 5:21 AM CEST (9/15) 6:02 PM CEST (9/15)
Length of Visible Light 13h 35m
Length of Day
12h 34m
Waning Crescent, 1% of the Moon is Illuminated
Sep 15
Waning Crescent
Sep 16
New
Sep 22
First Quarter
Sep 30
Full
Oct 8
Last Quarter

Hourly Weather History & Observations

Time (CEST) Temp. Dew Point Humidity Pressure Visibility Wind Dir Wind Speed Gust Speed Precip Events Conditions
2:00 AM 62 °F 52 °F 61% 29.82 in - WNW 2.2 mph - -  
2:07 AM 62.6 °F 51.8 °F 68% 29.83 in - North - - N/A   Unknown
4:45 AM 60.8 °F 53.6 °F 77% 29.80 in - SW 1.2 mph - N/A   Clear
6:15 AM 60.8 °F 53.6 °F 77% 29.83 in 6.2 mi SSW 3.5 mph - N/A   Overcast
6:45 AM 60.8 °F 53.6 °F 77% 29.80 in - NW 2.3 mph - N/A   Clear
7:00 AM - - N/A% - 6.2 mi NW 4.6 mph - N/A   Overcast
7:15 AM 59.0 °F 53.6 °F 82% 29.83 in - WSW 2.3 mph - N/A   Clear
7:45 AM 60.8 °F 53.6 °F 77% 29.83 in - WNW 2.3 mph - N/A   Clear
8:00 AM 60 °F 54 °F 73% 29.84 in 12 mi WNW 2.2 mph - -   Partly Cloudy
8:15 AM 60.8 °F 53.6 °F 77% 29.86 in - West 3.5 mph - N/A   Clear
8:45 AM 60.8 °F 53.6 °F 77% 29.86 in 6.2 mi North 2.3 mph - N/A   Overcast
9:15 AM 62.6 °F 53.6 °F 72% 29.86 in 6.2 mi NNW 4.6 mph - N/A   Overcast
9:45 AM 60.8 °F 53.6 °F 77% 29.86 in 6.2 mi NNE 6.9 mph - N/A   Overcast
10:02 AM - - N/A% - 6.2 mi Variable 3.5 mph - N/A   Overcast
10:15 AM 60.8 °F 51.8 °F 72% 29.89 in 6.2 mi ENE 8.1 mph - N/A   Overcast
10:45 AM 60.8 °F 51.8 °F 72% 29.89 in 6.2 mi NE 3.5 mph - N/A   Overcast
11:15 AM 60.8 °F 53.6 °F 77% 29.89 in 6.2 mi NNE 5.8 mph - N/A   Overcast
11:45 AM 60.8 °F 51.8 °F 72% 29.89 in 6.2 mi North 6.9 mph - N/A   Mostly Cloudy
12:15 PM 57.2 °F 53.6 °F 88% 29.92 in 6.2 mi NNE 6.9 mph - N/A Rain Light Rain
12:45 PM 57.2 °F 53.6 °F 88% 29.92 in 5.0 mi North 6.9 mph - N/A Rain Light Rain
1:00 PM - - N/A% - 6.2 mi NNE 10.4 mph - N/A   Overcast
1:05 PM 57.2 °F 53.6 °F 88% 29.92 in - NNE 13.8 mph - N/A   Unknown
1:15 PM 57.2 °F 53.6 °F 88% 29.92 in 6.2 mi NNE 13.8 mph - N/A   Mostly Cloudy
1:45 PM 57.2 °F 51.8 °F 82% 29.89 in 6.2 mi NNE 10.4 mph - N/A   Overcast
2:00 PM 58 °F 52 °F 75% 29.90 in 12 mi NNE 11.2 mph - - Rain Light Rain
2:15 PM 59.0 °F 51.8 °F 77% 29.92 in 6.2 mi NE 8.1 mph - N/A   Overcast
2:45 PM 59.0 °F 51.8 °F 77% 29.92 in 6.2 mi NNE 6.9 mph - N/A   Overcast
3:15 PM 59.0 °F 51.8 °F 77% 29.92 in 6.2 mi ENE 5.8 mph - N/A   Overcast
3:45 PM 59.0 °F 50.0 °F 72% 29.92 in 6.2 mi Calm Calm - N/A   Overcast
4:00 PM - - N/A% - 6.2 mi NNE 9.2 mph - N/A   Overcast
4:15 PM 60.8 °F 50.0 °F 68% 29.92 in 6.2 mi SW 2.3 mph - N/A   Overcast
4:45 PM 60.8 °F 51.8 °F 72% 29.92 in 6.2 mi SSW 2.3 mph - N/A   Mostly Cloudy
5:15 PM 60.8 °F 51.8 °F 72% 29.92 in 6.2 mi South 1.2 mph - N/A   Mostly Cloudy
5:45 PM 59.0 °F 53.6 °F 82% 29.95 in 6.2 mi South 4.6 mph - N/A   Mostly Cloudy
6:15 PM 59.0 °F 53.6 °F 82% 29.95 in 6.2 mi WSW 4.6 mph - N/A   Mostly Cloudy
6:45 PM 59.0 °F 53.6 °F 82% 29.95 in 6.2 mi WSW 4.6 mph - N/A   Mostly Cloudy
7:15 PM 59.0 °F 53.6 °F 82% 29.98 in 6.2 mi West 5.8 mph - N/A   Mostly Cloudy
7:45 PM 59.0 °F 51.8 °F 77% 29.98 in 6.2 mi WNW 5.8 mph - N/A   Mostly Cloudy
8:00 PM 59 °F 52 °F 71% 29.98 in 9 mi WNW 4.5 mph - -   Partly Cloudy
8:00 PM - - N/A% - - North - - N/A   Unknown